K4AVM-13 Weather Reports


time (UTC)temp
C
wind
direction
speed
KPH
gust
KPH
rain 1hr
cm
rain 24hr
cm
rain mn
cm
humidity
%
barometer
mb
20260506235526 21 150 0.0 1.6 0.00 0.25 0.25 81 1011.1
20260506235021 21 167 0.0 3.2 0.00 0.25 0.25 81 1011.1
20260506234519 21 168 0.0 3.2 0.00 0.25 0.25 80 1011.0
20260506234016 21 149 1.6 4.8 0.00 0.25 0.25 80 1011.0
20260506233512 21 207 1.6 3.2 0.00 0.25 0.25 79 1010.9
20260506233010 21 163 1.6 9.7 0.00 0.25 0.25 79 1010.9
20260506232505 21 150 1.6 3.2 0.00 0.25 0.25 79 1011.0
20260506232001 21 154 3.2 4.8 0.00 0.25 0.25 79 1011.0
20260506231459 21 158 1.6 3.2 0.00 0.25 0.25 78 1011.1
20260506230956 22 167 0.0 1.6 0.00 0.25 0.25 77 1010.6
20260506230452 22 154 1.6 6.4 0.00 0.25 0.25 77 1011.2
20260506225949 22 156 0.0 1.6 0.00 0.25 0.25 77 1011.2
20260506225447 21 142 1.6 3.2 0.00 0.25 0.25 78 1011.0
20260506224943 21 155 0.0 3.2 0.00 0.25 0.25 78 1011.1
20260506224441 21 211 1.6 3.2 0.00 0.25 0.25 77 1011.1
20260506223937 21 154 3.2 6.4 0.00 0.25 0.25 77 1011.0
20260506223432 21 155 1.6 4.8 0.00 0.25 0.25 77 1011.1
20260506222930 21 157 1.6 4.8 0.00 0.25 0.25 77 1011.0
20260506222426 21 153 0.0 3.2 0.00 0.25 0.25 76 1011.1
20260506221923 21 148 1.6 3.2 0.00 0.25 0.25 76 1011.1
20260506221420 21 182 3.2 4.8 0.00 0.25 0.25 76 1011.0
20260506220918 22 174 1.6 3.2 0.00 0.25 0.25 77 1010.8
20260506220414 22 192 1.6 1.6 0.00 0.25 0.25 76 1010.9
20260506215910 22 172 1.6 4.8 0.00 0.25 0.25 76 1011.1
20260506215407 22 279 6.4 9.7 0.00 0.25 0.25 75 1011.0
20260506214902 22 201 3.2 12.9 0.00 0.25 0.25 75 1011.0
20260506214359 22 148 0.0 1.6 0.00 0.25 0.25 76 1011.1
20260506213857 22 166 0.0 0.0 0.00 0.25 0.25 76 1011.1
20260506213355 22 190 1.6 3.2 0.00 0.25 0.25 76 1011.2
20260506212852 22 140 3.2 4.8 0.00 0.25 0.25 76 1011.5
20260506212347 22 199 1.6 6.4 0.00 0.25 0.25 77 1011.3
20260506211842 22 168 0.0 1.6 0.00 0.25 0.25 78 1011.2
20260506211339 22 170 0.0 3.2 0.00 0.25 0.25 78 1011.3
20260506210836 22 182 1.6 3.2 0.00 0.25 0.25 78 1011.3
20260506210333 22 155 1.6 3.2 0.00 0.25 0.25 78 1011.2
20260506205830 22 206 3.2 14.5 0.00 0.25 0.25 77 1011.2
20260506205326 22 186 1.6 3.2 0.00 0.25 0.25 78 1011.1
20260506204822 22 179 1.6 3.2 0.00 0.25 0.25 78 1011.3
20260506204320 21 169 0.0 1.6 0.00 0.25 0.25 81 1011.1
20260506203818 21 161 0.0 3.2 0.00 0.25 0.25 81 1011.1
20260506203315 21 191 1.6 3.2 0.00 0.25 0.25 82 1011.2
20260506202811 21 180 1.6 3.2 0.00 0.25 0.25 82 1011.1
20260506202308 21 171 0.0 1.6 0.00 0.25 0.25 82 1011.2
20260506201805 21 183 1.6 3.2 0.00 0.25 0.25 82 1011.3
20260506201302 21 173 0.0 1.6 0.00 0.25 0.25 81 1011.2
20260506200759 21 173 0.0 4.8 0.00 0.25 0.25 83 1011.2
20260506200255 21 164 0.0 1.6 0.00 0.25 0.25 83 1010.9
20260506195752 20 132 0.0 6.4 0.00 0.25 0.25 83 1010.4
20260506195248 20 153 0.0 3.2 0.00 0.25 0.25 83 1010.4
20260506194746 20 130 1.6 3.2 0.00 0.25 0.25 84 1010.5
20260506194242 20 159 0.0 3.2 0.00 0.25 0.25 84 1010.5
20260506193740 20 165 0.0 1.6 0.00 0.25 0.25 85 1010.8
20260506193237 20 178 0.0 1.6 0.00 0.25 0.25 86 1010.9
20260506192733 20 157 1.6 4.8 0.00 0.25 0.25 86 1011.2
20260506192230 20 170 4.8 6.4 0.00 0.25 0.25 87 1011.1
20260506191727 20 150 1.6 4.8 0.00 0.25 0.25 87 1011.3
20260506191223 19 149 3.2 3.2 0.00 0.25 0.25 87 1011.5
20260506190720 19 166 3.2 6.4 0.00 0.25 0.25 88 1011.7
20260506190217 19 164 1.6 9.7 0.00 0.25 0.25 90 1011.6
20260506185714 18 161 1.6 1.6 0.00 0.25 0.25 89 1011.8
20260506185210 18 189 1.6 3.2 0.00 0.25 0.25 90 1011.8
20260506184708 18 169 1.6 3.2 0.00 0.25 0.25 90 1012.1
20260506184205 18 328 0.0 1.6 0.00 0.25 0.25 89 1011.8
20260506183701 18 169 3.2 4.8 0.00 0.25 0.25 88 1011.7
20260506183157 18 178 3.2 4.8 0.00 0.25 0.25 87 1012.0
20260506182655 19 225 1.6 6.4 0.00 0.25 0.25 87 1012.2
20260506182151 19 251 4.8 6.4 0.00 0.25 0.25 87 1012.3
20260506181644 19 164 3.2 3.2 0.00 0.25 0.25 87 1012.5
20260506181141 19 216 4.8 6.4 0.00 0.25 0.25 86 1012.4
20260506180638 19 215 4.8 6.4 0.00 0.25 0.25 86 1012.5
20260506180134 19 150 1.6 14.5 0.00 0.25 0.25 86 1012.6
20260506175631 19 162 0.0 4.8 0.00 0.25 0.25 86 1012.6
20260506175127 19 153 1.6 6.4 0.00 0.25 0.25 86 1012.5
20260506174626 19 135 0.0 6.4 0.00 0.25 0.25 86 1012.5
20260506174122 19 149 0.0 1.6 0.00 0.25 0.25 85 1012.4
20260506173620 19 105 3.2 11.3 0.00 0.25 0.25 85 1012.5
20260506173116 19 154 0.0 9.7 0.00 0.25 0.25 86 1012.6
20260506172614 18 187 3.2 11.3 0.00 0.25 0.25 86 1012.7
20260506172110 18 236 6.4 9.7 0.00 0.25 0.25 86 1012.4
20260506171608 18 158 3.2 4.8 0.00 0.25 0.25 86 1012.4
20260506171105 18 167 3.2 9.7 0.00 0.25 0.25 86 1012.9
20260506170601 18 160 1.6 3.2 0.00 0.25 0.25 88 1012.9
20260506170054 18 153 0.0 3.2 0.00 0.25 0.25 88 1013.1
20260506165552 18 176 1.6 4.8 0.00 0.25 0.25 88 1013.0
20260506165048 18 165 1.6 12.9 0.00 0.25 0.25 88 1012.9
20260506164545 18 221 1.6 6.4 0.00 0.25 0.25 87 1012.9
20260506164042 18 199 1.6 3.2 0.00 0.25 0.25 88 1012.9
20260506163538 18 159 0.0 6.4 0.00 0.25 0.25 89 1013.0
20260506163033 18 129 3.2 9.7 0.00 0.25 0.25 88 1012.9
20260506162530 18 163 1.6 1.6 0.00 0.25 0.25 90 1012.8
20260506162022 17 151 1.6 3.2 0.00 0.25 0.25 91 1012.9
20260506161519 17 144 1.6 4.8 0.00 0.25 0.25 92 1013.0
20260506161016 16 172 1.6 9.7 0.00 0.25 0.25 93 1012.9
20260506160514 16 129 4.8 6.4 0.00 0.25 0.25 95 1012.8
20260506160011 16 110 4.8 6.4 0.00 0.25 0.25 95 1013.0
20260506155508 16 176 3.2 6.4 0.00 0.25 0.25 95 1012.8
20260506153640 16 190 1.6 4.8 0.00 0.25 0.25 97 1013.6
20260506153137 16 158 0.0 3.2 0.00 0.25 0.25 97 1013.5
20260506152634 16 156 0.0 3.2 0.00 0.25 0.25 97 1013.8
20260506152132 16 156 0.0 3.2 0.00 0.25 0.25 98 1013.7
20260506151631 16 156 0.0 3.2 0.00 0.25 0.25 98 1013.8
20260506151127 16 168 1.6 3.2 0.00 0.25 0.25 98 1013.6
20260506150624 16 143 0.0 3.2 0.00 0.25 0.25 97 1013.9
20260506150121 16 166 0.0 0.0 0.13 0.25 0.25 97 1013.8
20260506145618 16 158 0.0 4.8 0.30 0.25 0.25 96 1013.7
20260506145115 16 125 1.6 3.2 0.48 0.23 0.23 95 1014.0
20260506144612 16 162 0.0 3.2 0.30 0.20 0.20 94 1014.2
20260506144108 16 154 0.0 3.2 0.30 0.15 0.15 93 1014.3
20260506143606 16 161 3.2 9.7 0.30 0.13 0.13 91 1014.3
20260506143104 16 229 3.2 4.8 0.13 0.10 0.10 90 1014.2
20260506142602 17 141 1.6 4.8 0.18 0.08 0.08 88 1014.2
20260506142100 17 152 1.6 4.8 0.18 0.08 0.08 88 1014.1
20260506141557 17 256 4.8 9.7 0.13 0.05 0.05 87 1014.0
20260506141056 17 148 1.6 4.8 0.30 0.05 0.05 86 1014.1
20260506140553 17 166 1.6 3.2 0.18 0.03 0.03 83 1013.8
20260506140050 18 193 6.4 11.3 0.00 0.00 0.00 78 1014.0
20260506135547 18 150 6.4 9.7 0.00 0.00 0.00 74 1013.9
20260506135043 18 154 0.0 6.4 0.00 0.00 0.00 73 1013.9
20260506134539 18 175 4.8 12.9 0.00 0.00 0.00 73 1013.8
20260506134035 18 144 3.2 4.8 0.00 0.00 0.00 75 1013.8
20260506133533 18 120 1.6 3.2 0.00 0.00 0.00 75 1013.7
20260506133030 18 114 1.6 4.8 0.00 0.00 0.00 75 1013.8
20260506132527 18 174 4.8 6.4 0.00 0.00 0.00 75 1013.8
20260506132024 19 188 4.8 9.7 0.00 0.00 0.00 75 1013.5
20260506131521 19 202 3.2 4.8 0.00 0.00 0.00 75 1013.8
20260506131018 18 145 3.2 4.8 0.00 0.00 0.00 75 1013.7
20260506130514 18 198 1.6 4.8 0.00 0.00 0.00 75 1013.6
20260506130012 18 161 0.0 4.8 0.00 0.00 0.00 76 1013.6
20260506125510 18 128 3.2 4.8 0.00 0.00 0.00 77 1013.7
20260506125007 18 149 0.0 6.4 0.00 0.00 0.00 77 1013.6
20260506124505 18 134 1.6 9.7 0.00 0.00 0.00 78 1013.7
20260506124003 18 168 3.2 4.8 0.00 0.00 0.00 77 1013.6
20260506123500 18 158 1.6 4.8 0.00 0.00 0.00 77 1013.5
20260506122958 18 148 1.6 1.6 0.00 0.00 0.00 76 1013.3
20260506122455 18 134 0.0 1.6 0.00 0.00 0.00 76 1013.3
20260506121953 18 154 3.2 4.8 0.00 0.00 0.00 76 1013.4
20260506121450 18 107 3.2 6.4 0.00 0.00 0.00 76 1013.4
20260506120946 18 156 1.6 3.2 0.00 0.00 0.00 78 1013.4
20260506120444 17 151 3.2 4.8 0.00 0.00 0.00 78 1013.6
20260506115941 17 162 1.6 9.7 0.00 0.00 0.00 78 1013.5
20260506115439 17 167 6.4 9.7 0.00 0.00 0.00 78 1013.6
20260506114937 17 151 0.0 6.4 0.00 0.00 0.00 78 1013.4
20260506114434 17 165 3.2 4.8 0.00 0.00 0.00 79 1013.5
20260506113933 17 164 0.0 3.2 0.00 0.00 0.00 79 1013.2
20260506113431 17 144 1.6 4.8 0.00 0.00 0.00 79 1013.3
20260506112927 17 127 1.6 4.8 0.00 0.00 0.00 79 1013.4
20260506112425 17 139 1.6 9.7 0.00 0.00 0.00 80 1013.5
20260506111921 17 145 3.2 3.2 0.00 0.00 0.00 79 1013.4
20260506111420 17 209 0.0 3.2 0.00 0.00 0.00 79 1013.4
20260506110916 17 98 3.2 12.9 0.00 0.00 0.00 79 1013.3
20260506110414 17 145 3.2 9.7 0.00 0.00 0.00 79 1013.4
20260506105910 17 164 3.2 4.8 0.00 0.00 0.00 79 1013.7
20260506105407 17 163 0.0 3.2 0.00 0.00 0.00 79 1013.6
20260506104904 17 110 3.2 3.2 0.00 0.00 0.00 79 1013.6
20260506104402 17 257 3.2 6.4 0.00 0.00 0.00 79 1013.6
20260506103900 17 180 1.6 3.2 0.00 0.00 0.00 79 1013.7
20260506103357 17 163 0.0 4.8 0.00 0.00 0.00 79 1013.8
20260506102854 17 161 0.0 3.2 0.00 0.00 0.00 78 1013.5
20260506102352 17 131 1.6 4.8 0.00 0.00 0.00 78 1013.4
20260506101849 17 154 0.0 4.8 0.00 0.00 0.00 78 1013.4
20260506101345 17 257 4.8 11.3 0.00 0.00 0.00 78 1013.3
20260506100843 17 165 1.6 3.2 0.00 0.00 0.00 78 1013.4
20260506100341 17 201 3.2 11.3 0.00 0.00 0.00 78 1013.4
20260506095839 17 134 3.2 3.2 0.00 0.00 0.00 78 1013.1
20260506095336 17 197 3.2 11.3 0.00 0.00 0.00 77 1013.4
20260506094833 17 161 1.6 3.2 0.00 0.00 0.00 77 1013.4
20260506094332 17 89 3.2 11.3 0.00 0.00 0.00 77 1013.3
20260506093829 17 112 1.6 9.7 0.00 0.00 0.00 77 1013.2
20260506093326 17 127 3.2 9.7 0.00 0.00 0.00 77 1013.3
20260506092824 17 127 0.0 9.7 0.00 0.00 0.00 77 1013.2
20260506092322 17 99 3.2 12.9 0.00 0.00 0.00 77 1013.3
20260506091818 17 209 3.2 4.8 0.00 0.00 0.00 77 1013.3
20260506091316 17 178 3.2 4.8 0.00 0.00 0.00 77 1013.2
20260506090814 17 99 1.6 4.8 0.00 0.00 0.00 77 1013.2
20260506090311 17 114 1.6 4.8 0.00 0.00 0.00 77 1013.2
20260506085807 17 195 6.4 9.7 0.00 0.00 0.00 78 1013.4
20260506085305 17 201 3.2 9.7 0.00 0.00 0.00 78 1013.5
20260506084800 17 184 3.2 3.2 0.00 0.00 0.00 78 1013.6
20260506084256 17 158 1.6 9.7 0.00 0.00 0.00 78 1013.5
20260506083754 17 202 4.8 6.4 0.00 0.00 0.00 78 1013.5
20260506083251 17 189 3.2 3.2 0.00 0.00 0.00 78 1013.6
20260506082748 17 141 0.0 3.2 0.00 0.00 0.00 78 1013.6
20260506082243 17 169 3.2 6.4 0.00 0.00 0.00 78 1013.6
20260506081742 17 164 4.8 11.3 0.00 0.00 0.00 78 1013.5
20260506081239 17 171 1.6 4.8 0.00 0.00 0.00 78 1013.7
20260506080737 17 123 3.2 9.7 0.00 0.00 0.00 78 1013.5
20260506080233 17 113 0.0 3.2 0.00 0.00 0.00 78 1013.5
20260506073217 18 148 0.0 4.8 0.00 0.00 0.00 77 1013.7
20260506072714 18 188 3.2 6.4 0.00 0.00 0.00 77 1013.7
20260506072212 18 174 1.6 9.7 0.00 0.00 0.00 77 1013.8
20260506071709 18 163 3.2 12.9 0.00 0.00 0.00 77 1013.7
20260506071207 18 123 1.6 12.9 0.00 0.00 0.00 77 1013.7
20260506070703 18 126 3.2 4.8 0.00 0.00 0.00 76 1013.9
20260506070201 18 159 1.6 6.4 0.00 0.00 0.00 76 1013.9
20260506062137 18 202 9.7 14.5 0.00 0.00 0.00 75 1014.0
20260506061633 18 177 1.6 4.8 0.00 0.00 0.00 75 1013.9
20260506061131 18 128 1.6 3.2 0.00 0.00 0.00 75 1014.0
20260506060629 18 186 4.8 9.7 0.00 0.00 0.00 74 1014.1
20260506060126 18 194 3.2 9.7 0.00 0.00 0.00 74 1014.1
20260506051058 19 165 4.8 9.7 0.00 0.00 0.00 73 1014.5
20260506050556 19 118 0.0 3.2 0.00 0.00 0.00 73 1014.5
20260506045046 20 176 3.2 4.8 0.00 0.00 0.00 72 1014.8
20260506044544 20 113 3.2 6.4 0.00 0.00 0.00 72 1014.8
20260506044041 20 185 4.8 11.3 0.00 0.00 0.00 71 1014.9
20260506043538 20 177 4.8 11.3 0.00 0.00 0.00 71 1014.8
20260506043036 20 150 3.2 12.9 0.00 0.00 0.00 70 1014.8
20260506042535 20 199 6.4 6.4 0.00 0.00 0.00 70 1014.7
20260506042033 20 184 6.4 9.7 0.00 0.00 0.00 70 1014.6
20260506041531 20 166 0.0 4.8 0.00 0.00 0.00 69 1014.7
20260506041027 20 182 1.6 9.7 0.00 0.00 0.00 69 1014.6
20260506040526 20 145 1.6 4.8 0.00 0.00 0.00 68 1014.6
20260506040021 20 187 3.2 12.9 0.00 0.00 0.00 68 1014.7
20260506035518 20 169 3.2 6.4 0.00 0.00 0.00 68 1014.5
20260506035015 20 107 3.2 11.3 0.00 0.00 0.00 67 1014.6
20260506034513 21 172 1.6 11.3 0.00 0.00 0.00 66 1014.6
20260506034009 21 137 3.2 12.9 0.00 0.00 0.00 65 1014.7
20260506033507 21 200 1.6 4.8 0.00 0.00 0.00 64 1014.5
20260506033004 21 165 3.2 4.8 0.00 0.00 0.00 63 1014.6
20260506032501 21 132 0.0 6.4 0.00 0.00 0.00 63 1014.7
20260506031956 21 204 0.0 1.6 0.00 0.00 0.00 62 1014.6
20260506031455 21 132 0.0 4.8 0.00 0.00 0.00 61 1014.6
20260506030952 21 135 0.0 3.2 0.00 0.00 0.00 60 1014.4
20260506030450 21 145 1.6 1.6 0.00 0.00 0.00 59 1014.4
20260506025946 21 180 3.2 4.8 0.00 0.00 0.00 58 1014.4
20260506025443 22 159 0.0 3.2 0.00 0.00 0.00 58 1014.3
20260506024940 22 207 4.8 6.4 0.00 0.00 0.00 57 1014.6
20260506024437 22 227 4.8 11.3 0.00 0.00 0.00 57 1014.4
20260506023932 22 154 4.8 6.4 0.00 0.00 0.00 56 1014.5
20260506023430 22 169 1.6 1.6 0.00 0.00 0.00 56 1014.4
20260506022926 22 169 1.6 3.2 0.00 0.00 0.00 55 1014.6
20260506022424 22 144 0.0 4.8 0.00 0.00 0.00 54 1014.5
20260506021922 22 155 1.6 6.4 0.00 0.00 0.00 54 1014.4
20260506021419 22 172 1.6 3.2 0.00 0.00 0.00 54 1014.4
20260506020916 22 112 6.4 6.4 0.00 0.00 0.00 53 1014.3
20260506020414 22 129 0.0 3.2 0.00 0.00 0.00 53 1014.3
20260506015911 22 154 0.0 1.6 0.00 0.00 0.00 53 1014.3
20260506015408 22 169 0.0 4.8 0.00 0.00 0.00 53 1014.4
20260506014905 22 141 1.6 3.2 0.00 0.00 0.00 52 1014.3
20260506014402 22 126 0.0 6.4 0.00 0.00 0.00 52 1014.2
20260506013858 22 194 0.0 11.3 0.00 0.00 0.00 52 1014.2
20260506013356 22 195 3.2 6.4 0.00 0.00 0.00 52 1014.3
20260506012852 23 155 1.6 9.7 0.00 0.00 0.00 52 1014.1
20260506012349 23 149 3.2 4.8 0.00 0.00 0.00 51 1014.0
20260506011846 23 123 0.0 11.3 0.00 0.00 0.00 51 1014.2
20260506011343 23 151 0.0 4.8 0.00 0.00 0.00 51 1013.9
20260506010840 23 168 3.2 4.8 0.00 0.00 0.00 51 1013.9
20260506010338 23 151 0.0 3.2 0.00 0.00 0.00 50 1013.9
20260506005835 23 145 1.6 6.4 0.00 0.00 0.00 49 1013.9
20260506005332 23 141 1.6 6.4 0.00 0.00 0.00 49 1013.7
20260506004828 23 145 1.6 4.8 0.00 0.00 0.00 48 1013.8
20260506004326 23 146 0.0 4.8 0.00 0.00 0.00 48 1013.6
20260506003821 23 149 0.0 9.7 0.00 0.00 0.00 47 1013.5
20260506003318 23 196 4.8 6.4 0.00 0.00 0.00 47 1013.6
20260506002814 24 123 1.6 4.8 0.00 0.00 0.00 47 1013.5
20260506002311 24 155 0.0 14.5 0.00 0.00 0.00 46 1013.6
20260506001806 24 164 3.2 9.7 0.00 0.00 0.00 46 1013.3
20260506001304 24 119 3.2 4.8 0.00 0.00 0.00 46 1013.3
20260506000801 24 122 1.6 6.4 0.00 0.00 0.00 46 1013.3
20260506000259 24 157 1.6 11.3 0.00 0.00 0.00 45 1013.4
20260505235755 24 145 1.6 4.8 0.00 0.00 0.00 45 1013.4